This demonstration page uses our WeatherBlox Daily Observations layout. Learn more.

Left ArrowRight Arrow

Hourly Observations for December 2, 2015

Temp ( °F °C ) Dew Point ( °F °C ) Humidity (%) Winds ( mph kmh ) Pressure ( in mb ) Visibility ( mi km ) Precip ( " mm )
12:53 am 00:53 Cloudy with Light Rain 44 6.7 39 3.9 83 83 Calm 30.24 1024 7 11 0.01 0.25
1:53 am 01:53 Cloudy 45 7.2 41 5 86 86 NW 6 9 30.24 1024 8 13 0.01 0.25
2:53 am 02:53 Cloudy 46 7.8 41 5 83 83 Calm 30.25 1024 8 13 0.00 0.00
3:53 am 03:53 Cloudy 46 7.8 41 5 83 83 Calm 30.25 1024 8 13 0.00 0.00
4:53 am 04:53 Cloudy 45 7.2 41 5 86 86 Calm 30.25 1024 9 14 0.00 0.00
5:53 am 05:53 Cloudy with Light Rain 46 7.8 42 5.6 86 86 WNW 3 6 30.26 1025 6 10 0.00 0.03
6:53 am 06:53 Cloudy with Mist and Fog 46 7.8 42 5.6 86 86 WNW 3 6 30.27 1025 5 8 0.00 0.03
7:53 am 07:53 Cloudy 47 8.3 43 6.1 86 86 Calm 30.27 1025 10 16 0.00 0.03
8:53 am 08:53 Cloudy 49 9.4 44 6.7 83 83 Calm 30.27 1025 10 16 0.00 0.03
9:53 am 09:53 Cloudy 50 10 45 7.2 83 83 NNW 5 7 30.27 1025 10 16 0.01 0.25
10:53 am 10:53 Cloudy 53 11.7 44 6.7 72 72 NNW 7 11 30.25 1025 10 16 0.00 0.00
11:53 am 11:53 Cloudy with Light Rain 54 12.2 44 6.7 69 69 N 9 15 30.22 1024 10 16 0.00 0.03
12:53 pm 12:53 Cloudy 56 13.3 43 6.1 62 62 VRB 7 11 30.19 1022 10 16 0.00 0.03
1:53 pm 13:53 Cloudy 56 13.3 42 5.6 60 60 NNW 8 13 30.17 1022 10 16 0.00 0.00
2:53 pm 14:53 Cloudy 55 12.8 44 6.7 67 67 NNW 5 7 30.16 1022 10 16 0.00 0.03
3:53 pm 15:53 Cloudy 56 13.3 45 7.2 67 67 Calm 30.15 1021 10 16 0.00 0.00
4:53 pm 16:53 Cloudy 55 12.8 45 7.2 69 69 NNW 6 9 30.13 1020 10 16 0.00 0.00
5:53 pm 17:53 Cloudy 54 12.2 45 7.2 72 72 WNW 3 6 30.12 1020 10 16 0.00 0.00
6:53 pm 18:53 Cloudy 53 11.7 45 7.2 74 74 WNW 5 7 30.09 1019 10 16 0.00 0.00
7:53 pm 19:53 Cloudy 53 11.7 45 7.2 74 74 NW 6 9 30.06 1018 10 16 0.00 0.00
8:53 pm 20:53 Cloudy 52 11.1 45 7.2 77 77 Calm 30.06 1018 10 16 0.00 0.00
9:53 pm 21:53 Cloudy 51 10.6 46 7.8 83 83 Calm 30.04 1017 10 16 0.00 0.03
10:53 pm 22:53 Cloudy with Light Rain 51 10.6 45 7.2 80 80 W 3 6 30.07 1018 7 11 0.00 0.03
11:53 pm 23:53 Cloudy 50 10 45 7.2 83 83 E 6 9 30.05 1018 10 16 0.04 1.02

Powered by AerisWeather